Preview of NWS' New Version of Forecast
This preview is not operational and should not be used for support decisions.

Regional Weather Roundup (RWR)

Issued by National Weather Service (NWS)

                            
000
ASUS45 KABQ 191010
RWRNM 
NEW MEXICO REGIONAL WEATHER ROUNDUP
NATIONAL WEATHER SERVICE ALBUQUERQUE NM
400 AM MDT SUN MAY 19 2019

NOTE: "FAIR" MEANS FEW OR NO CLOUDS BELOW 12,000 FEET AGL WITH NO
       SIGNIFICANT WEATHER OR OBSTRUCTIONS TO VISION.

      THIS PRODUCT IS RELEASED AS TWO VERSIONS.  ONE VERSION NEAR
      THE TOP OF THE HOUR CONTAINING PRELIMINARY DATA FROM ALBUQUERQUE
      AND OTHER STATIONS.  A FINAL VERSION WITH ADDITIONAL DATA IS 
      ISSUED ABOUT 10 MINUTES AFTER THE HOUR.
 
NMZ501-503-504-510>518-191100-
NORTHWEST PLATEAU/NORTHCENTRAL MOUNTAINS
  
CITY           SKY/WX    TMP DP  RH WIND       PRES   REMARKS
FARMINGTON     FAIR      46  33  60 E8        29.92S                  
LOS ALAMOS       N/A     45  18  33 NW5       30.01S                  
SANTA FE       FAIR      40  19  43 N10       29.97R WCI  33          
ANGEL FIRE       N/A     27  20  76 CALM      30.05R                  

$$
NMZ402-403-502-505>509-191100-
WESTCENTRAL MOUNTAINS/SOUTHWEST MOUNTAINS
  
CITY           SKY/WX    TMP DP  RH WIND       PRES   REMARKS
GALLUP         FAIR      46  25  43 S3        29.97S                  
GRANTS         FAIR      44  22  41 CALM      30.00F                  
SILVER CITY    FAIR      38  13  35 NW7       29.98S WCI  33          

$$
NMZ407-409-411-412-191100-
SOUTHERN DESERTS
  
CITY           SKY/WX    TMP DP  RH WIND       PRES   REMARKS
DEMING         FAIR      50  15  24 W7        29.95S                  
LAS CRUCES     FAIR      50  11  20 W5        29.95S                  
HOLLOMAN AFB   FAIR      53  16  23 SE8       29.94R                  
ALAMOGORDO     FAIR      48  12  23 CALM      29.93R                  
T OR C         FAIR      54  16  22 NW8       29.93S                  

$$
NMZ519>523-191100-
CENTRAL VALLEYS/CENTRAL HIGHLANDS
  
CITY           SKY/WX    TMP DP  RH WIND       PRES   REMARKS
ALBUQUERQUE    MOCLDY    46  22  38 E5        29.96R                  
DOUBLE EAGLE   FAIR      43  21  42 CALM      29.97S                  
MORIARTY ARPT  FAIR      32  23  69 CALM      30.01R                  
CLINES CORNERS FAIR      40  17  39 SW5       30.02R                  
BELEN          FAIR      50  17  27 SW5       29.96R                  
SOCORRO        FAIR      48  20  32 S3        29.94S                  

$$
NMZ524>526-539-540-191100-
SOUTHCENTRAL MOUNTAINS
  
CITY           SKY/WX    TMP DP  RH WIND       PRES   REMARKS
RUIDOSO        FAIR      45  10  24 SW7       30.05S                  

$$
NMZ527>531-191100-
NORTHEAST HIGHLANDS/NORTHEAST PLAINS
  
CITY           SKY/WX    TMP DP  RH WIND       PRES   REMARKS
LAS VEGAS      FAIR      39  21  48 CALM      29.99R                  
RATON          FAIR      33  26  75 E7        29.97R WCI  27          
CLAYTON        FAIR      39  30  70 N3        29.95R                  

$$
NMZ532>537-191100-
EASTCENTRAL PLAINS
  
CITY           SKY/WX    TMP DP  RH WIND       PRES   REMARKS
SANTA ROSA     FAIR      47  20  35 CALM      29.94R                  
TUCUMCARI      FAIR      43  30  60 NE9       29.92R                  
CANNON AFB     FAIR      43  24  47 NE9       29.95R                  
CLOVIS AIRPORT FAIR      42  28  57 NE8       29.96R                  

$$
NMZ028-029-538-191100-
SOUTHEAST PLAINS
  
CITY           SKY/WX    TMP DP  RH WIND       PRES   REMARKS
ROSWELL        FAIR      54  18  24 N5        29.89R                  
ARTESIA        FAIR      54  14  20 W8        29.91R                  
CARLSBAD       FAIR      53  18  25 S5        29.88R                  
HOBBS          FAIR      48  16  27 NW8       29.92R                  


$$